Find Starlink 5811

NORAD ID: 55787 Int'l Des: 2023-028 Owner: SPXS Country: US Constellation: starlink operational
LEOCIRCULAR

現在のビュー

3D地球を読み込み中...

About Starlink 5811

Starlink 5811 (NORAD 55787) is a starlink constellation satellite (v1.5) launched Mar 3, 2023 by SPXS of US. It operates in LEO, CIRCULAR orbit with a mass of 305.00 kg.

Starlink 5811について

説明を読み込み中...

次回通過

Passes for default location (London). Set your location on the main map for personalized predictions.

高度履歴

Loading altitude history...

軌道要素

1 55787U 23028AY 26195.20429411 .00000132 00000-0 18868-4 0 9994
2 55787 69.9977 245.5932 0003603 267.5194 92.5552 14.98338277185977
Epoch: Jul 14, 2026 • Age: 3 hours

現在のステータス

高度 575.1 km
遠地点 / 近地点 N/A
速度 7.57 km/s
衛星直下点 20.67°N, 162.19°W
打ち上げ日 Mar 3, 2023
運用期間 3.3 years
タイプ internet

技術仕様

分類 Payload
質量 305.00 kg
乾燥質量 290.00 kg
総質量 305.00 kg
長さ 0.20 m
直径 2.80 m
スパン 9.00 m
形状 Box + pan
製造者 SPXS
バスタイプ Starlink
フェーズステータス In Orbit
所有者/国 SPXS/US

Most Searched